Temp
63 63 62 62 62 61 62 62 62 61 61 61 61 61 61 61 61 61 62 62 61 61 61 62 63 64 83 94 98 98 82 84 97 100 105 104 99 97 88 96 95 93 93 95 95 96 94
62 62 62 62 62 62 61 61 61 61 61 61 61 61 61 61 61 61 61 61 60 60 61 62 64 63 87 90 109 104 104 98 105 106 106 106 101 103 97 95 91 97 95 94 95 94 94
62 62 62 62 62 61 61 61 61 61 61 61 61 60 60 60 60 61 60 59 59 60 61 63 65 79 93 97 108 109 107 104 110 109 105 107 107 102 102 93 100 97 88 91 92 92 90
62 62 62 62 61 61 61 61 61 61 60 60 60 60 60 60 60 59 59 58 59 61 64 66 67 87 93 108 111 106 109 107 110 111 109 108 109 104 99 102 97 92 90 78 89 90 90
62 62 62 61 61 61 60 60 60 60 60 60 60 60 60 59 59 58 57 57 60 64 68 67 82 92 94 93 101 109 110 104 106 108 108 106 107 102 99 91 86 80 65 80 82 92 89
62 61 61 61 61 61 60 60 60 60 59 59 59 59 59 59 58 57 57 57 67 66 73 89 94 90 99 97 106 108 111 109 104 103 101 100 101 95 96 82 53 70 81 83 82 87 89
61 61 61 61 61 60 60 60 60 60 59 59 59 59 58 58 57 57 65 89 84 82 91 93 95 94 97 104 107 104 109 106 105 100 92 98 91 81 87 78 73 87 82 82 87 90 88
61 61 61 61 60 60 60 60 59 59 59 59 59 58 58 57 57 56 68 90 84 85 81 97 96 98 99 102 95 102 109 98 96 90 97 94 86 85 95 95 92 90 85 79 88 90 88
62 61 61 60 60 60 59 59 59 59 59 58 58 58 57 56 56 68 89 86 93 92 82 92 96 95 97 99 95 99 104 100 95 91 94 89 91 96 94 91 89 90 84 85 79 86 89
62 61 60 60 60 59 59 59 59 59 58 58 58 58 57 55 64 89 88 90 95 91 78 85 89 94 100 98 93 108 107 102 98 92 95 92 95 93 92 90 93 79 92 90 86 77 74
61 61 60 60 60 59 59 59 58 58 58 58 58 57 55 53 75 88 88 94 94 90 68 87 91 103 100 93 98 98 109 103 93 94 95 91 92 91 89 91 94 61 89 90 87 79 79
61 60 60 60 60 59 59 58 58 58 58 57 57 56 55 71 79 89 92 93 89 74 66 82 91 88 90 93 97 101 99 104 103 96 97 93 101 97 94 95 95 95 92 91 89 86 69
60 60 60 59 59 59 58 58 58 57 57 57 55 54 57 77 86 90 91 87 74 70 86 82 84 90 88 88 91 95 91 90 87 82 84 90 92 97 97 91 95 93 89 76 73 74 49
60 60 59 59 59 58 58 58 58 57 57 56 54 53 64 81 88 88 87 79 67 80 83 87 86 89 84 90 89 92 89 86 93 92 88 82 79 92 97 94 89 90 85 65 64 74 77
60 60 59 59 59 58 58 58 57 57 56 55 53 85 86 89 89 87 80 71 77 82 85 83 86 81 83 89 90 90 89 88 92 95 85 84 84 97 98 99 97 89 74 61 72 87 82
60 60 60 59 59 58 58 58 57 57 56 55 72 85 88 88 89 85 76 66 82 85 84 84 78 85 80 85 86 87 87 93 92 97 100 93 82 93 96 98 98 91 95 76 82 71 68
60 60 59 59 59 58 58 58 57 56 55 55 73 81 86 93 89 80 72 78 83 88 85 82 81 81 84 85 87 85 87 93 97 96 99 97 91 87 94 89 89 90 88 89 83 87 73
60 60 59 59 59 58 58 58 57 55 54 66 80 76 89 91 75 80 77 82 65 84 86 83 83 83 82 86 86 85 86 92 100 99 91 97 93 81 87 97 99 93 92 91 81 80 84
59 59 59 59 59 59 58 57 56 55 54 66 73 79 90 87 71 77 82 82 81 80 82 82 81 85 86 82 78 86 89 96 96 97 93 97 88 76 82 89 96 91 94 92 97 77 83
59 59 59 59 59 59 58 57 56 55 55 64 73 72 81 80 81 75 74 76 77 83 81 84 83 86 82 80 85 82 87 91 92 94 76 89 92 85 77 83 91 86 90 94 93 86 86
59 59 59 59 59 59 59 58 57 56 55 64 76 75 70 70 77 75 76 75 72 74 83 82 79 80 80 75 80 80 87 89 90 84 91 94 85 89 91 87 94 92 90 91 89 92 83
59 59 59 59 59 59 59 58 57 56 55 69 66 66 71 68 71 69 65 68 70 74 77 77 74 80 81 77 81 79 84 86 85 92 89 95 83 88 85 83 91 85 93 93 92 93 92
58 59 59 59 59 59 59 58 58 57 56 71 72 73 66 60 67 67 69 70 71 75 77 80 80 79 77 82 88 91 92 95 94 91 89 89 87 84 78 88 88 82 87 92 93 95 95
58 58 58 58 59 59 59 59 58 58 57 69 66 67 61 58 65 66 67 68 68 70 69 74 76 77 83 93 93 92 91 89 89 90 95 88 86 86 80 84 71 90 100 97 95 97 99
58 58 58 58 58 58 59 59 59 58 58 65 66 62 55 55 60 61 62 63 66 68 66 67 72 81 90 83 76 72 74 76 80 86 89 93 88 81 77 79 85 90 95 94 92 92 101
57 57 58 58 58 58 59 59 59 59 58 63 68 70 60 50 57 60 58 60 57 61 65 67 75 81 84 78 73 62 64 71 71 77 89 91 90 84 80 74 71 88 99 104 100 86 102
57 57 57 57 58 58 59 59 59 59 58 62 66 68 55 47 60 61 57 57 61 58 57 63 66 68 77 67 68 67 68 79 71 70 73 77 80 76 78 77 84 96 102 104 82 86 103
57 57 57 57 57 58 58 58 59 59 58 61 64 69 59 52 59 63 62 54 54 56 44 54 58 62 64 65 69 71 71 77 77 80 77 74 74 76 79 74 72 100 100 90 97 104 104
57 57 57 57 57 57 58 58 58 58 58 58 60 64 62 48 53 64 64 67 66 65 54 50 46 45 57 65 70 75 73 79 77 73 87 76 84 80 83 82 95 100 100 107 109 102 105
MSLP
1021.68 1021.46 1021.27 1020.93 1020.59 1020.25 1019.85 1019.45 1019.06 1018.70 1018.26 1017.76 1017.29 1016.66 1015.95 1015.29 1014.78 1014.12 1013.67 1013.06 1012.45 1011.79 1011.32 1010.75 1010.45 1010.03 1008.26 1005.63 1003.09 1003.93 1004.59 1004.86 1004.83 1004.49 1002.36 1001.03 1000.15 999.75 999.92 999.99 1000.38 1000.62 1001.59 1002.37 1003.06 1003.11 1003.93
1021.97 1021.63 1021.28 1020.90 1020.49 1020.17 1019.86 1019.49 1019.03 1018.58 1018.17 1017.66 1017.07 1016.45 1015.85 1015.27 1014.58 1013.81 1013.26 1012.76 1011.98 1011.39 1010.83 1010.38 1010.10 1010.07 1007.89 1004.03 1002.63 1003.39 1003.81 1004.34 1003.37 1002.85 1001.55 1000.93 1000.34 1000.01 999.93 1000.02 1000.37 1000.77 1001.73 1002.58 1002.93 1003.48 1003.82
1022.07 1021.73 1021.32 1020.89 1020.58 1020.25 1019.84 1019.41 1018.99 1018.54 1018.09 1017.57 1016.99 1016.28 1015.54 1014.96 1014.34 1013.46 1012.77 1012.25 1011.41 1010.87 1010.34 1009.89 1009.73 1009.17 1005.95 1002.67 1002.51 1002.69 1003.19 1003.10 1002.35 1001.91 1000.96 1000.97 1000.73 1000.09 999.72 1000.37 1000.68 1001.27 1001.88 1002.62 1003.11 1003.61 1003.86
1022.17 1021.85 1021.49 1021.05 1020.71 1020.35 1019.92 1019.44 1018.95 1018.46 1017.91 1017.38 1016.82 1016.08 1015.35 1014.71 1013.96 1013.19 1012.39 1011.74 1010.92 1010.29 1009.79 1009.34 1009.33 1008.07 1003.69 1002.58 1002.58 1002.61 1002.47 1002.36 1002.12 1001.69 1001.32 1001.29 1001.00 1000.16 999.73 1000.61 1001.10 1001.28 1001.80 1001.96 1003.15 1003.67 1004.33
1022.24 1021.96 1021.62 1021.25 1020.90 1020.52 1020.04 1019.50 1018.98 1018.48 1017.92 1017.27 1016.58 1015.80 1015.06 1014.33 1013.58 1012.68 1011.94 1011.17 1010.33 1009.80 1009.34 1009.09 1008.45 1006.07 1002.57 1003.45 1002.78 1001.87 1001.84 1001.66 1001.88 1001.70 1001.57 1001.65 1000.69 999.76 1000.31 1000.49 1000.76 1002.24 1002.62 1001.82 1002.85 1003.18 1003.88
1022.36 1022.08 1021.72 1021.34 1021.00 1020.63 1020.16 1019.64 1019.10 1018.56 1017.94 1017.26 1016.54 1015.73 1014.86 1014.03 1013.22 1012.29 1011.26 1010.35 1009.63 1009.58 1008.99 1007.78 1006.41 1004.78 1002.19 1001.42 1001.22 1001.42 1001.38 1001.12 1001.22 1001.23 1001.22 1000.96 999.95 999.35 999.47 1000.06 1002.81 1002.56 1001.13 1001.13 1001.80 1003.17 1003.22
1022.42 1022.14 1021.81 1021.40 1021.00 1020.62 1020.18 1019.66 1019.12 1018.56 1017.89 1017.16 1016.41 1015.50 1014.64 1013.72 1012.78 1011.95 1010.89 1008.34 1008.84 1008.00 1006.14 1003.39 1002.56 1001.71 1001.24 1001.11 1001.35 1001.24 1001.32 1001.00 1000.79 1000.71 1000.01 999.81 998.86 999.18 999.30 1000.09 1001.22 1000.66 1001.08 1000.74 1001.42 1002.66 1002.52
1022.41 1022.08 1021.78 1021.42 1021.00 1020.60 1020.15 1019.61 1019.04 1018.48 1017.80 1017.09 1016.36 1015.49 1014.65 1013.57 1012.54 1011.46 1011.06 1007.39 1007.83 1007.78 1005.06 1002.80 1002.43 1001.45 1001.81 1001.54 1000.91 1000.65 1001.00 1000.66 1000.34 999.70 999.27 998.67 998.45 999.86 999.31 999.07 999.34 999.60 999.98 1001.08 1001.31 1002.24 1002.24
1022.38 1022.06 1021.76 1021.49 1021.07 1020.62 1020.14 1019.61 1019.02 1018.40 1017.72 1017.00 1016.27 1015.47 1014.64 1013.39 1012.20 1010.79 1008.60 1008.00 1007.82 1007.25 1004.83 1001.26 1001.21 1001.03 1001.11 1001.32 999.99 999.50 1000.22 999.87 999.40 999.03 998.22 997.54 998.34 998.55 998.66 998.84 998.66 998.91 999.46 1000.00 1001.17 1001.93 1002.07
1022.37 1022.08 1021.87 1021.50 1021.05 1020.57 1020.06 1019.53 1018.95 1018.31 1017.59 1016.85 1016.13 1015.41 1014.66 1013.33 1012.20 1009.27 1007.74 1007.99 1007.45 1007.18 1003.65 1000.38 1000.37 999.99 999.99 1000.47 999.62 998.76 999.61 999.24 998.54 998.07 997.62 997.56 998.22 998.12 998.14 998.00 998.42 999.69 999.83 999.84 1000.48 1001.99 1001.49
1022.38 1022.15 1021.85 1021.49 1021.05 1020.54 1020.01 1019.43 1018.73 1018.06 1017.37 1016.55 1015.80 1015.21 1014.58 1014.59 1011.92 1008.40 1008.07 1007.77 1007.45 1006.55 1001.73 999.71 999.35 999.49 999.58 999.58 998.41 998.60 998.82 998.75 997.99 997.67 997.61 996.84 997.17 997.74 997.69 997.34 998.20 1002.74 1000.23 999.57 1000.03 1000.99 1000.68
1022.45 1022.22 1021.90 1021.55 1021.10 1020.58 1019.97 1019.29 1018.58 1017.87 1017.05 1016.09 1015.29 1014.86 1014.29 1012.11 1011.18 1008.88 1008.42 1007.81 1007.05 1004.52 999.76 998.94 998.85 999.19 998.81 998.99 997.66 998.00 998.47 998.79 998.17 997.73 997.35 997.03 997.15 997.33 996.91 997.75 998.25 998.91 999.15 999.10 999.18 999.40 999.78
1022.49 1022.20 1021.91 1021.55 1021.09 1020.56 1019.94 1019.30 1018.58 1017.71 1016.76 1015.74 1014.63 1014.25 1014.02 1011.63 1008.66 1008.95 1008.57 1007.03 1004.49 1001.03 998.93 998.18 998.06 998.08 998.16 997.91 997.75 997.14 998.01 997.92 997.55 997.11 996.74 997.21 997.02 997.16 997.71 997.32 997.97 998.22 998.11 998.35 998.80 998.64 1001.44
1022.53 1022.18 1021.82 1021.42 1020.96 1020.44 1019.80 1019.10 1018.42 1017.60 1016.61 1015.47 1013.82 1013.45 1012.11 1010.68 1009.67 1009.26 1008.13 1005.90 1002.14 998.99 997.93 998.38 997.97 997.55 997.25 996.97 997.32 996.77 997.22 997.13 997.49 996.73 995.87 996.25 996.33 996.77 997.18 996.63 997.07 997.60 997.65 1000.58 999.28 997.33 997.33
1022.57 1022.21 1021.82 1021.40 1020.94 1020.43 1019.81 1019.04 1018.16 1017.12 1016.03 1015.05 1013.02 1010.41 1009.56 1009.10 1009.38 1009.26 1007.26 1003.79 1000.09 998.94 998.73 998.47 998.02 997.37 996.71 996.46 996.54 996.43 996.12 996.27 996.38 996.31 995.36 995.05 995.25 995.98 996.50 996.84 996.86 997.22 999.84 1003.60 1000.71 996.95 995.87
1022.63 1022.24 1021.92 1021.53 1021.05 1020.51 1019.90 1019.21 1018.36 1017.27 1015.83 1014.68 1012.96 1009.49 1008.46 1009.14 1009.22 1008.43 1006.32 1002.66 1000.04 1000.12 1000.32 999.61 997.87 997.04 996.12 995.98 995.94 995.81 995.46 995.42 995.51 995.95 995.29 994.50 994.65 995.84 995.98 996.65 996.86 997.44 997.52 999.82 998.28 996.37 995.54
1022.68 1022.33 1021.96 1021.59 1021.17 1020.64 1020.03 1019.35 1018.51 1017.47 1015.99 1013.86 1012.57 1008.52 1008.58 1008.90 1008.80 1007.14 1004.37 1001.94 1000.70 1000.41 1000.93 999.92 998.60 997.40 996.61 995.63 995.65 995.52 994.90 995.08 995.20 995.24 995.50 994.67 994.35 995.40 995.63 996.17 995.62 996.45 996.79 996.69 997.69 995.53 995.14
1022.68 1022.29 1021.97 1021.63 1021.19 1020.70 1020.14 1019.47 1018.73 1017.80 1016.22 1013.41 1011.08 1007.74 1008.37 1008.57 1007.28 1005.05 1003.34 1002.01 1001.61 1000.90 1001.00 1000.79 1000.17 998.96 997.87 996.43 995.43 995.65 994.68 994.41 994.69 994.89 994.82 994.96 994.41 994.81 995.02 995.47 995.62 995.56 995.16 995.60 995.37 995.31 995.07
1022.66 1022.35 1022.02 1021.69 1021.27 1020.77 1020.26 1019.69 1019.04 1018.37 1017.89 1016.03 1011.64 1008.62 1007.86 1008.05 1005.83 1003.71 1002.82 1002.37 1002.15 1001.88 1001.34 1000.82 1000.22 999.54 998.78 998.07 996.91 995.57 995.02 994.99 994.91 994.76 994.62 995.26 995.04 995.11 994.89 994.98 994.90 994.95 994.58 994.79 993.69 995.56 993.52
1022.70 1022.34 1021.98 1021.64 1021.30 1020.90 1020.42 1019.84 1019.18 1018.44 1018.00 1016.99 1012.29 1008.50 1006.86 1007.36 1006.53 1005.50 1003.96 1002.66 1002.05 1002.20 1002.16 1001.26 1000.63 1000.05 999.67 999.00 998.02 996.79 995.62 995.73 996.25 996.02 996.24 995.55 995.02 994.66 994.27 994.09 994.14 994.89 994.30 993.99 993.34 992.45 993.18
1022.73 1022.38 1022.06 1021.70 1021.33 1020.90 1020.47 1020.01 1019.38 1018.45 1017.70 1017.01 1012.33 1009.52 1010.08 1007.35 1005.79 1005.81 1005.19 1004.22 1003.27 1002.26 1001.87 1002.06 1001.30 1000.56 999.80 999.23 998.11 997.43 996.15 995.80 996.83 996.64 996.37 995.89 994.78 994.53 994.09 994.11 993.49 993.66 993.99 993.71 993.32 992.64 993.00
1022.64 1022.33 1022.03 1021.69 1021.32 1020.94 1020.56 1020.18 1019.66 1018.78 1017.72 1015.94 1013.72 1012.49 1011.21 1010.15 1008.86 1007.92 1006.74 1005.69 1004.58 1003.58 1002.81 1001.71 1001.74 1000.89 1000.47 999.31 998.31 997.52 997.35 996.70 996.43 996.58 996.63 996.00 995.26 994.83 993.95 995.82 993.54 993.10 993.09 993.29 993.62 993.32 993.38
1022.46 1022.17 1021.91 1021.63 1021.32 1020.96 1020.58 1020.20 1019.77 1019.22 1018.64 1015.56 1014.85 1014.16 1013.57 1011.20 1009.59 1008.30 1007.01 1006.12 1005.28 1004.69 1003.92 1002.96 1001.94 1001.25 1000.49 999.66 999.27 998.10 997.71 996.85 996.42 995.58 995.80 995.65 995.19 994.59 993.65 994.10 993.73 993.37 992.94 992.59 993.00 993.29 993.27
1022.23 1021.98 1021.72 1021.44 1021.16 1020.84 1020.53 1020.21 1019.92 1019.55 1019.19 1017.24 1017.00 1015.82 1014.28 1011.87 1010.44 1009.21 1008.46 1007.90 1007.07 1006.26 1005.33 1004.28 1003.65 1001.97 1001.23 1000.29 999.54 999.25 998.78 998.26 997.55 996.72 995.64 994.98 994.75 994.58 993.99 993.96 992.89 992.24 992.63 993.04 992.86 992.95 993.13
1022.00 1021.75 1021.50 1021.24 1020.98 1020.72 1020.46 1020.23 1019.92 1019.53 1019.30 1018.18 1017.25 1016.68 1015.93 1013.66 1012.50 1011.38 1010.62 1009.75 1008.87 1008.01 1007.16 1006.63 1005.20 1003.34 1002.03 1001.54 1000.86 1000.13 999.81 999.15 997.95 997.51 996.59 995.66 994.86 994.37 993.93 993.18 992.90 992.42 992.16 992.29 992.61 992.75 992.92
1021.78 1021.61 1021.34 1021.06 1020.79 1020.51 1020.19 1019.92 1019.76 1019.53 1019.37 1018.70 1016.96 1017.14 1016.88 1015.89 1013.32 1012.87 1012.19 1011.50 1010.72 1009.36 1008.01 1007.04 1006.46 1005.08 1002.80 1001.81 1001.04 999.66 997.98 997.46 997.28 997.09 996.98 996.19 995.65 994.78 994.22 992.80 991.57 991.97 991.87 991.98 992.19 992.39 992.73
1021.44 1021.17 1021.00 1020.77 1020.53 1020.26 1020.01 1019.75 1019.60 1019.47 1019.28 1018.81 1016.94 1016.93 1017.65 1016.36 1014.57 1013.83 1012.97 1012.27 1011.81 1011.57 1010.32 1008.83 1007.76 1006.02 1004.24 1002.65 1000.46 999.20 997.69 996.49 995.95 995.66 995.82 995.66 995.14 994.49 993.73 993.00 992.17 991.66 991.29 991.73 991.61 992.29 992.31
1021.18 1021.00 1020.69 1020.50 1020.26 1019.97 1019.84 1019.58 1019.38 1019.26 1019.10 1018.67 1016.77 1016.25 1016.81 1016.27 1014.77 1014.02 1013.94 1013.47 1013.26 1012.75 1012.47 1011.23 1010.31 1007.71 1005.47 1003.19 1000.92 998.97 997.38 995.84 995.04 994.45 994.38 994.47 994.42 993.77 993.87 993.11 992.20 991.49 991.02 990.80 991.65 991.93 991.94
1020.79 1020.61 1020.49 1020.20 1019.97 1019.82 1019.49 1019.23 1019.04 1018.91 1018.82 1018.74 1017.03 1016.35 1016.92 1017.08 1015.49 1014.75 1014.11 1013.14 1012.70 1012.45 1012.74 1013.17 1012.37 1011.72 1008.72 1005.52 1002.15 999.64 997.23 995.65 994.46 993.25 993.41 993.94 993.43 993.37 992.98 992.46 992.62 991.85 991.16 990.83 991.17 991.74 991.90
Wind_Speed
13 12 13 13 13 14 15 16 17 16 17 18 18 20 22 22 23 23 22 21 22 22 21 20 18 17 13 11 1 9 10 12 16 15 15 8 8 3 9 8 5 13 11 14 11 12 12
13 13 13 14 15 14 15 16 17 18 18 19 20 20 20 21 23 23 22 21 22 22 21 19 16 14 10 15 9 12 12 16 16 16 12 9 5 9 4 4 4 14 12 14 9 12 9
11 12 14 14 15 16 17 17 18 18 19 20 21 21 22 22 24 25 24 22 24 21 19 17 12 8 11 4 1 8 13 16 13 14 8 1 6 14 7 7 9 14 15 13 10 8 7
10 11 13 15 15 16 17 18 19 19 20 20 21 22 22 23 25 24 24 23 23 19 15 12 8 11 9 6 0 9 13 15 9 7 6 4 9 9 7 11 12 13 17 14 11 8 5
11 12 13 13 14 15 16 18 19 19 19 20 21 23 23 24 24 25 24 23 21 14 8 4 9 11 10 5 12 12 12 13 12 10 8 6 10 13 7 15 14 25 10 16 11 6 8
10 11 12 13 14 15 15 17 18 18 19 20 21 23 24 25 25 25 26 21 5 8 9 9 8 8 9 13 16 15 11 9 15 11 11 12 11 12 14 6 10 16 10 9 18 10 10
9 10 11 13 14 15 16 17 18 19 20 21 22 23 24 26 26 25 17 6 8 9 14 11 6 6 5 7 3 13 15 15 13 14 16 14 15 4 14 25 31 15 7 12 14 13 10
8 10 10 13 14 15 17 18 18 19 20 21 22 23 25 27 27 26 12 5 7 7 10 15 13 12 2 6 13 19 17 16 15 17 19 12 10 10 19 5 5 7 11 8 14 11 4
9 10 10 13 14 15 16 17 19 19 21 22 22 23 25 27 28 13 7 7 7 8 9 12 15 16 14 13 15 22 21 22 19 20 19 15 12 14 6 9 9 10 6 11 8 11 7
10 10 11 13 14 16 18 18 19 20 21 22 22 23 23 29 11 6 3 2 9 4 8 15 13 11 16 11 17 21 23 21 16 22 15 14 12 8 8 11 10 8 19 9 11 8 6
8 10 12 13 15 17 18 19 20 21 22 23 23 22 21 12 13 5 8 8 9 7 8 11 14 8 16 16 13 20 24 25 22 21 13 14 7 11 11 7 5 5 27 10 10 20 20
10 12 13 14 16 17 18 19 20 21 23 25 24 22 21 6 10 9 8 8 7 9 5 9 10 13 18 19 17 25 16 24 19 18 16 13 6 7 1 4 8 15 11 11 12 15 2
12 13 13 15 15 16 17 18 20 22 24 26 27 22 13 9 4 7 8 8 9 11 4 9 9 18 21 20 21 19 25 27 20 21 20 19 14 6 8 9 7 12 16 11 9 8 12
11 12 13 14 15 16 18 20 21 22 24 26 29 21 6 8 7 8 7 10 10 1 7 4 4 13 21 22 25 21 24 24 28 25 15 17 16 15 12 9 10 14 8 4 3 5 17
10 11 12 12 14 16 18 21 23 26 27 26 31 6 6 5 3 6 8 10 6 8 6 4 9 11 17 21 19 22 24 26 27 27 24 21 18 21 18 13 12 5 16 19 14 15 9
11 12 12 12 14 16 17 19 22 25 29 28 9 6 3 5 4 7 9 15 5 4 7 7 14 14 16 21 21 24 23 23 27 29 28 17 14 16 14 8 12 15 9 14 6 5 8
11 10 11 13 14 15 17 19 21 24 28 31 8 6 7 2 5 8 11 13 8 7 5 9 11 7 15 14 22 20 22 19 26 28 28 26 15 19 16 15 16 11 12 3 9 10 3
11 11 10 12 14 15 16 18 20 22 29 12 7 6 5 4 8 9 13 15 3 9 7 11 7 14 11 14 13 22 23 20 21 27 31 27 13 13 17 17 17 13 15 14 15 10 6
12 12 12 13 14 15 15 16 17 18 15 10 8 7 6 6 8 9 11 14 7 11 14 10 12 12 6 11 8 13 22 6 3 23 26 23 21 10 19 19 12 10 16 16 16 14 7
12 13 14 14 13 14 14 15 17 18 16 10 6 5 6 7 11 12 16 14 13 11 15 15 16 15 10 13 10 11 25 8 3 13 6 13 24 20 16 17 19 19 19 17 14 8 9
12 12 12 13 13 15 14 15 16 20 19 9 3 4 6 7 5 9 12 15 12 14 15 10 17 18 13 16 17 17 16 9 8 7 11 13 23 27 24 15 19 20 20 19 16 13 7
13 11 11 12 13 13 13 14 15 18 23 7 7 5 5 12 16 16 13 16 18 16 18 16 16 16 19 19 18 13 18 21 16 18 16 20 20 25 26 25 19 7 21 18 13 15 8
11 11 11 11 12 13 13 12 12 14 12 5 5 4 6 8 13 13 13 16 18 16 18 19 18 16 20 18 20 17 14 11 17 21 22 22 20 22 22 19 19 17 26 16 13 12 12
10 11 11 11 12 12 11 11 11 11 10 9 5 8 7 10 12 12 15 17 18 19 17 17 19 18 17 13 15 16 11 14 13 11 15 20 23 19 18 21 25 9 16 11 12 12 11
10 11 11 12 12 12 11 10 9 9 8 9 2 5 5 9 10 15 17 17 19 20 19 17 22 22 22 5 9 12 14 19 20 19 18 15 16 16 17 19 17 20 21 20 14 12 9
11 11 12 11 11 11 9 8 8 7 8 9 6 3 4 5 7 10 12 12 13 15 17 19 21 25 21 12 13 22 19 17 20 23 22 19 18 13 17 23 26 17 23 14 16 14 13
11 11 11 11 11 11 10 9 8 9 8 9 9 5 4 6 13 16 12 13 9 12 12 17 14 18 22 12 16 17 20 20 19 25 22 20 18 20 17 16 16 20 19 16 18 12 16
11 11 11 11 11 11 11 9 9 9 8 8 8 5 8 8 15 18 18 17 11 11 5 9 10 12 11 18 16 13 15 19 20 22 27 22 21 16 19 19 17 22 18 21 13 17 9
11 11 12 12 12 12 11 11 11 10 9 9 10 3 4 5 8 16 21 20 24 24 12 3 8 11 7 11 15 12 12 14 20 17 22 22 22 17 20 16 9 12 19 15 16 13 14
Wind_Direction
5 18 11 6 3 2 357 354 350 349 347 343 340 336 333 331 329 326 324 321 317 313 309 305 307 310 303 224 193 101 142 166 185 217 241 256 271 296 244 126 191 107 102 114 127 115 101
5 2 2 360 357 356 354 351 348 347 345 342 340 335 330 329 327 324 322 319 312 308 302 298 297 302 246 247 89 131 151 166 192 218 234 247 15 324 74 77 190 117 126 118 149 105 128
3 358 355 350 355 355 351 348 346 345 343 341 338 333 330 330 328 323 320 317 311 305 297 289 279 257 258 280 20 150 169 185 207 223 239 305 295 260 161 132 117 134 133 140 127 139 121
356 352 352 353 355 351 349 346 343 342 338 336 335 332 330 328 325 321 318 314 307 300 291 273 244 233 274 101 274 177 180 193 214 231 286 284 255 278 257 117 176 158 162 146 137 155 137
8 7 1 358 354 350 347 344 342 340 336 334 333 330 328 327 324 320 316 309 300 288 293 196 211 239 225 131 203 194 196 192 195 207 232 284 233 229 173 204 194 95 255 122 142 177 158
6 3 358 353 349 346 342 341 339 338 335 333 332 327 326 326 323 319 316 295 314 268 226 224 272 228 212 209 188 179 204 195 190 191 215 225 233 218 213 181 358 269 155 140 129 156 212
3 358 357 351 346 346 344 339 337 336 333 331 330 327 327 325 321 319 321 214 205 192 222 239 208 227 98 117 88 192 190 190 200 203 222 205 230 287 314 142 192 239 126 119 106 146 200
343 344 351 349 344 342 341 338 335 333 331 329 328 327 328 323 318 313 285 293 38 344 293 232 242 256 142 268 192 203 185 195 202 209 229 192 226 224 230 5 256 181 133 140 126 162 223
334 344 355 348 345 341 337 335 334 332 331 330 329 328 329 321 318 288 323 45 338 317 257 195 211 215 206 203 225 187 192 210 197 217 216 223 136 206 207 173 226 187 133 146 165 157 225
344 354 356 351 346 340 338 336 334 333 331 329 328 328 330 324 298 344 225 355 316 304 267 155 191 206 188 214 220 197 198 204 212 223 206 229 242 197 209 250 230 309 149 182 146 125 235
352 5 358 354 347 342 339 337 334 333 330 327 325 326 324 323 317 266 22 313 319 243 255 140 132 90 176 208 173 215 186 218 227 225 213 225 199 195 242 259 126 172 256 154 174 163 226
18 9 1 355 349 343 339 336 334 332 328 324 321 323 325 207 215 285 308 301 254 230 241 145 157 192 191 204 222 179 192 224 231 227 231 230 179 216 192 115 250 170 177 184 199 226 206
13 4 360 352 347 343 339 337 335 330 327 323 318 319 307 304 0 341 301 248 225 250 106 151 188 186 198 190 213 205 193 204 213 221 206 222 187 172 240 179 184 218 198 190 201 202 244
10 3 357 350 346 343 339 337 335 330 327 323 316 314 166 273 305 286 258 230 251 346 190 51 267 190 206 195 203 206 190 206 214 225 204 208 193 177 209 220 186 231 183 46 261 283 117
5 357 352 350 344 341 340 338 336 333 331 330 310 193 236 119 287 258 245 224 232 280 16 247 179 230 212 210 199 206 212 208 204 221 231 199 214 171 200 218 253 225 143 234 272 152 190
358 353 354 348 343 340 340 339 336 334 331 332 311 276 93 353 236 227 242 254 280 347 311 255 257 201 211 210 202 207 209 211 212 210 235 241 208 190 181 227 238 225 326 207 159 240 115
347 348 343 350 344 342 342 341 339 337 332 318 263 267 84 175 238 226 236 237 258 184 245 272 261 277 263 202 207 221 218 212 212 206 224 244 244 188 176 206 220 203 243 263 315 305 310
345 337 347 348 342 343 343 341 338 338 336 323 288 278 83 251 238 227 243 255 320 290 203 256 270 293 291 272 224 217 220 217 206 218 209 232 250 182 206 204 234 255 220 204 225 144 157
344 347 351 347 341 338 341 338 337 340 356 318 306 296 127 245 258 244 231 264 278 265 258 237 243 246 228 274 263 255 230 191 296 217 219 208 236 245 233 196 213 236 242 261 256 314 144
350 349 350 347 346 346 340 338 338 335 341 315 284 293 173 198 277 287 293 287 255 209 258 272 260 261 238 245 237 260 231 134 236 249 25 257 223 228 219 220 191 206 249 234 268 201 142
343 344 344 343 342 344 343 342 337 329 330 302 260 22 37 301 261 319 296 291 290 273 218 257 247 249 249 244 231 225 264 227 201 243 261 241 228 234 234 259 197 198 214 225 250 278 286
324 321 332 338 341 341 340 340 338 330 329 253 320 346 352 292 286 277 268 263 268 261 271 234 240 247 236 243 252 220 227 234 210 207 220 225 232 235 243 195 270 221 200 207 198 254 274
337 339 333 335 336 338 342 343 339 336 328 304 24 287 280 291 283 274 269 271 272 272 266 274 278 240 248 235 250 269 296 235 246 214 209 219 223 224 234 214 234 195 238 197 199 201 260
322 324 326 328 328 328 332 336 339 337 329 309 354 301 282 280 275 277 291 292 284 276 295 306 301 256 273 279 241 247 256 267 269 250 257 221 215 225 228 230 233 203 193 222 235 201 215
312 315 318 321 324 322 323 326 324 321 314 293 316 306 297 279 293 290 280 281 288 275 267 277 284 283 252 184 243 224 228 235 232 230 233 246 232 221 224 228 222 215 236 202 220 213 209
311 313 315 317 318 322 327 337 337 312 300 277 265 277 277 286 256 287 286 281 284 280 265 245 274 276 281 237 215 227 220 209 212 212 219 229 238 237 220 231 225 201 223 216 220 221 192
307 308 309 311 311 315 314 320 321 327 317 270 284 183 249 260 262 261 259 283 286 279 285 287 286 274 255 246 223 221 231 224 214 207 196 213 213 223 223 230 236 223 207 214 213 213 196
301 304 306 308 308 305 309 311 310 313 313 283 279 238 230 264 277 284 274 271 272 240 255 352 305 237 258 225 230 219 237 223 228 215 200 200 202 211 223 218 223 229 224 208 201 220 253
297 299 303 303 302 302 303 301 294 291 297 297 273 315 248 232 271 287 280 273 251 248 256 207 293 309 301 245 233 240 232 232 224 212 208 203 213 214 215 218 229 251 247 230 223 206 226